Terug naar catalogus

FENGYUN 1C DEB

ActiefPO
NORAD 29802·DEBRIS·🇨🇳 China

Gelanceerd May 10, 1999 vanaf Taiyuan Satellite Launch Center

Loading…

Volgende Passages (komende 24 uur)

TLE

VersSource: Space-Track

Epoch: Sep 13, 2026, 20:05 UTC

1 29802U 99025CU  26256.83741054  .00010844  00000-0  18090-2 0  9996
2 29802  98.6340  24.9350 0033188 201.0122 319.6568 14.69783150 25039

Volg FENGYUN 1C DEB in realtime met AllMySat

Download on the App Store